Tracking 25656 objects as of 21-May-2022
HD Live streaming from Space Station
objects crossing your sky now

S-NET C

Track S-NET C now!
10-day predictions


NORAD ID: 43189
Int'l Code: 2018-014K
Perigee: 572.4 km
Apogee: 589.2 km
Inclination: 97.7 °
Period: 96.1 minutes
Semi major axis: 6951 km
RCS: Unknown
Launch date: February 1, 2018
Source: Germany (GER)
Launch site: VOSTOCHNY COSMODROME (VOSTO)
aabbcc
Your satellite tracking list
Your tracking list is empty




NASA's NSSDC Master Catalog

Two Line Element Set (TLE):
1 43189U 18014K   22141.30741941  .00003278  00000-0  28355-3 0  9994
2 43189  97.6602  47.5072 0012097  36.8986 323.3067 14.97811514233408
Source of the keplerian elements: AMSAT